Tracking 17884 objects as of 7-December-2016
HD Live streaming from Space Station
objects crossing your sky now

BREEZE-M R/B

Track BREEZE-M R/B now!


NORAD ID: 28925
Int'l Code: 2005-052B
Perigee: 6,186.3 km
Apogee: 35,355.2 km
Inclination: 19.6 °
Period: 741.7 minutes
Semi major axis: 27141 km
RCS: 0.6439 m2 (medium)
Launch date: December 29, 2005
Source: Commonwealth of Independent States (former USSR) (CIS)
Launch site: TYURATAM MISSILE AND SPACE COMPLEX (TTMTR)

Note: This is a ROCKET BODY
Your satellite tracking list
Your tracking list is empty





NASA's NSSDC Master Catalog

Two Line Element Set (TLE):
1 28925U 05052B   16340.48338942 -.00000115  00000-0  00000+0 0  9990
2 28925  19.6366  20.3111 5373433 161.2662 330.1663  1.94153710 77567
Source of the keplerian elements: AFSPC